Location: Cormont
(50.5693°N, 1.7416°E)
Time: 14:52:00
(UTC+00:00)

STARLINK-72 - Pass Details

Date: 21 October 2019
Orbit: 549 x 551 km, 53.0° (Epoch: 21 November)

Event Time Altitude Azimuth Distance (km) Brightness Sun altitude
Rises 18:59:14 0° 283° (WNW) 2,720 8.7 -21.2°
Reaches altitude 10° 19:01:29 10° 287° (WNW) 1,826 7.4 -21.6°
Maximum altitude 19:05:37 67° 10° (N) 599 3.7 -22.2°
Enters shadow 19:05:47 66° 27° (NNE) 602 3.6 -22.3°
